Regional Weather Roundup
Issued by NWS Portland, ME

Home | Current Version | Previous Version | Text Only | Print | Product List | Glossary On
Versions: 1 2 3 4 5 6 7 8 9 10 11 12 13 14 15 16 17 18 19 20 21 22 23 24 25 26 27 28 29 30 31 32 33 34 35 36 37 38 39 40 41 42 43 44 45 46 47 48 49 50
791
ASUS41 KGYX 241610
RWRGYX
WEATHER ROUNDUP FOR MAINE AND NEW HAMPSHIRE
NATIONAL WEATHER SERVICE GRAY ME
1200 PM EDT SUN JUL 24 2016

MEZ002-005-006-010-012-015-018-020-021-024-026-027-029-241700-
MAINE

CITY           SKY/WX    TMP DP  RH WIND       PRES   REMARKS
PORTLAND       SUNNY     82  61  48 VRB5      29.91S
SANFORD          N/A     81  61  50 W8        29.92S
BAR HARBOR     SUNNY     79  60  52 N7        29.88S
WISCASSET      SUNNY     79  57  46 NW8       29.92S
ROCKLAND       SUNNY     78  60  53 VRB5      29.89S
FRYEBURG       NOT AVBL
LEWISTONAUBURN   N/A     76  56  49 NW9       29.92S
AUGUSTA        MOSUNNY   78  57  48 NW7       29.92S
WATERVILLE     SUNNY     76  55  48 VRB5      29.90S
BANGOR         MOSUNNY   82  59  45 NW10      29.89F
GREENVILLE       N/A     69  51  52 N12G20    29.94R
MILLINOCKET    SUNNY     78  57  48 VRB7      29.90F
HOULTON        SUNNY     78  62  57 N8        29.87S
PRESQUE ISLE   SUNNY     75  62  64 VRB6      29.89F
FRENCHVILLE    SUNNY     74  60  61 N10       29.90S
CARIBOU        SUNNY     77  60  55 VRB6      29.88S
$$

NHZ002-005-008-009-011-012-014-241700-
NEW HAMPSHIRE

CITY           SKY/WX    TMP DP  RH WIND       PRES   REMARKS
PORTSMOUTH     MOSUNNY   82  62  50 VRB6      29.91S
ROCHESTER      SUNNY     81  60  48 W9        29.92R
NASHUA         CLOUDY    81  61  50 W9        29.94S
MANCHESTER     CLOUDY    81  58  45 W8        29.92F
CONCORD        SUNNY     82  54  37 NW15      29.94S
LACONIA        SUNNY     76  53  44 NW12G18   29.96R
PLYMOUTH       FAIR      73  56  54 W12G18    29.97R
BERLIN         MOSUNNY   72  54  53 VRB6      30.00S
WHITEFIELD     MOSUNNY   69  55  60 SW6       30.01S
JAFFREY        MOSUNNY   77  58  51 VRB6      30.00S
KEENE          PTSUNNY   79  61  53 N10       29.98S
LEBANON        SUNNY     80  58  46 N12       29.98R
MT WASHINGTON  MOSUNNY   55  19  24 NW20        N/A
$$

VTZ005-007-008-241700-
VERMONT

CITY           SKY/WX    TMP DP  RH WIND       PRES   REMARKS
ST JOHNSBURY     N/A     71  54  54 MISG      30.00S
MONTPELIER     FAIR      69  53  56 NW9       30.07R
BURLINGTON     PTSUNNY   71  51  49 N7        30.04S
$$

MAZ007-012-024-CTZ003-RIZ002-NYZ038-NYZ072-241700-
SOUTHERN NEW ENGLAND AND NY

CITY           SKY/WX    TMP DP  RH WIND       PRES   REMARKS
BOSTON         MOSUNNY   85  58  39 VRB5      29.92S
WORCESTER      PTSUNNY   77  57  50 W12       29.99S
NANTUCKET      SUNNY     78  65  63 W6        29.95R
PROVIDENCE     MOSUNNY   83  61  47 W9        29.95S
HARTFORD       PTSUNNY   87  57  35 NW9       29.95S
ALBANY         PTSUNNY   79  64  60 N6        30.00F
NEW YORK CITY  PTSUNNY   89  60  37 VRB3      29.96F
$$

ANZ081-ANZ082-ANZ150-NHZ014-MEZ023>029-241700-
COASTAL MARINE OBSERVATIONS

STATION/POSITION TIME  TEMP    WIND        PRES    WAVE
                       AIR SEA DIR/SP/G            HT/PER
                 (UTC) (F)     (DEG/KT/KT) (MB)    (FT/S)
MOUNT DESERT ROC 1600   63     290/  5/  7 1012.1R
MATINICUS ROCK   1600   69     270/  1/  3 1012.3R
ISLE OF SHOALS   1600   72     160/  7/  8 1013.0F
JEFFREYS LEDGE   1508      68                N/A     2/ 7
CASHES LEDGE BUO 1550   69 69  300/  8/ 10 1012.9R   3/ 7
GEORGES BANK BUO 1550   64 63              1011.5R   4/ 8
$$

.............KEY..............
   WCI - WIND CHILL
   TC  - TEMPERATURE IN CELSIUS
   VSB - VISIBILITY IN MILES
   HX  - HEAT INDEX
   FAIR- INDICATES FEW OR NO CLOUDS BELOW 12,000 FT, WITH NO
         SIGNIFICANT WEATHER AND/OR OBSTRUCTIONS TO VISIBILITY.






USA.gov is the U.S. government's official web portal to all federal, state and local government web resources and services.